This is the latest recevied weather packets stored in our database for station/object N7WSS. If no packets are shown the sender has not sent any weather packets the latest 10 day(s).
| Time | Temp. | Humidity | Pressure | Rain* | Wind** | Luminosity | Snow |
|---|---|---|---|---|---|---|---|
| 1787951018 | 40.56° C | 23% | 1012.7 hPa | 0 mm | - | - | - |
| 1787950713 | 41.11° C | 23% | 1012.6 hPa | 0 mm | - | - | - |
| 1787950409 | 41.11° C | 23% | 1012.9 hPa | 0 mm | - | - | - |
| 1787950106 | 41.11° C | 23% | 1012.9 hPa | 0 mm | - | - | - |
| 1787949801 | 41.11° C | 23% | 1013 hPa | 0 mm | - | - | - |
| 1787949500 | 41.11° C | 22% | 1013 hPa | 0 mm | - | - | - |
| 1787949196 | 40.56° C | 23% | 1013.2 hPa | 0 mm | - | - | - |
| 1787948891 | 40.56° C | 23% | 1013.5 hPa | 0 mm | - | - | - |
| 1787948587 | 39.44° C | 23% | 1013.3 hPa | 0 mm | - | - | - |
| 1787948282 | 40° C | 23% | 1013.6 hPa | 0 mm | - | - | - |
| 1787947981 | 40.56° C | 23% | 1013.5 hPa | 0 mm | - | - | - |
| 1787947681 | 39.44° C | 24% | 1013.6 hPa | 0 mm | - | - | - |
| 1787947380 | 40° C | 23% | 1013.9 hPa | 0 mm | - | - | - |
| 1787947080 | 39.44° C | 23% | 1013.8 hPa | 0 mm | - | - | - |
| 1787946779 | 38.89° C | 24% | 1014.2 hPa | 0 mm | - | - | - |
| 1787946478 | 40° C | 24% | 1014.1 hPa | 0 mm | - | - | - |
| 1787946174 | 41.11° C | 23% | 1014.3 hPa | 0 mm | - | - | - |
| 1787945868 | 41.11° C | 23% | 1014.4 hPa | 0 mm | - | - | - |
| 1787945564 | 41.11° C | 23% | 1014.3 hPa | 0 mm | - | - | - |
| 1787945263 | 40.56° C | 23% | 1014.3 hPa | 0 mm | - | - | - |
| 1787944963 | 40.56° C | 24% | 1014.5 hPa | 0 mm | - | - | - |
| 1787944661 | 40.56° C | 23% | 1014.3 hPa | 0 mm | - | - | - |
| 1787944357 | 40° C | 24% | 1014.7 hPa | 0 mm | - | - | - |
| 1787944052 | 39.44° C | 24% | 1014.7 hPa | 0 mm | - | - | - |
| 1787943747 | 39.44° C | 23% | 1014.5 hPa | 0 mm | - | - | - |
* Rain latest hour (hover to see other rain measurements)
** Current wind speed in m/s (hover to see current wind gust speed)